Regional Weather Roundup
Issued by NWS Upton, NY

Current Version | Previous Version | Graphics & Text | Print | Product List | Glossary Off
Versions: 1 2 3 4 5 6 7 8 9 10 11 12 13 14 15 16 17 18 19 20 21 22 23 24 25 26

000
ASUS41 KOKX 231105
RWROKX

REGIONAL WEATHER ROUNDUP
NATIONAL WEATHER SERVICE NEW YORK NY
700 AM EDT WED APR 23 2014

NOTE: "FAIR" INDICATES FEW OR NO CLOUDS BELOW 12,000 FEET WITH NO
SIGNIFICANT WEATHER AND/OR OBSTRUCTIONS TO VISIBILITY.

NYZ071-072-176-178-NJZ106-104-231200-
NEW YORK CITY METRO AREA


CITY           SKY/WX    TMP DP  RH WIND       PRES   REMARKS
CENTRAL PARK   CLOUDY    50  34  54 VRB5G16   29.59R
LAGUARDIA APRT MOCLDY    50  34  54 W18G28    29.56R
KENNEDY INTL   MOCLDY    52  35  52 NW17G28   29.57R
NEWARK/LIBERTY PTCLDY    50  32  50 W15G31    29.58R
TETERBORO      MOCLDY    51  34  52 NW14      29.56R
$$

NYZ177-179-078>081-231200-
LONG ISLAND NEW YORK

CITY           SKY/WX    TMP DP  RH WIND       PRES   REMARKS
FARMINGDALE    CLOUDY    50  41  71 W15G23    29.53R
ISLIP          CLOUDY    53  45  74 NW13G18   29.50R
SHIRLEY        CLOUDY    51  48  89 NW10      29.51R
WESTHAMPTON    PTSUNNY   50  47  89 N13       29.50R
MONTAUK POINT    N/A     51  48  89 W7        29.50R
$$

NYZ052-065-067-231200-
HUDSON VALLEY

CITY           SKY/WX    TMP DP  RH WIND       PRES   REMARKS
WHITE PLAINS   MOCLDY    48  38  68 NW15G25   29.53R
NEWBURGH       MOCLDY    46  39  76 W16       29.57R
MONTGOMERY     CLOUDY    47  35  63 VRB7      29.57R
POUGHKEEPSIE   CLOUDY    48  45  89 CALM      29.55R
ALBANY         CLOUDY    45  36  70 NW12G20   29.57R
$$

NJZ001-105-106-008-010-013-015-019>022-104-231200-
NEW JERSEY

CITY           SKY/WX    TMP DP  RH WIND       PRES   REMARKS
NEWARK/LIBERTY PTCLDY    50  32  50 W15G31    29.58R
TETERBORO      MOCLDY    51  34  52 NW14      29.56R
CALDWELL       PTCLDY    48  33  56 NW7       29.59R
MORRISTOWN     PTCLDY    48  32  53 NW10G18   29.60R
SOMERVILLE     CLOUDY    50  31  48 NW10G18   29.59R
LINDEN         CLOUDY    51  33  49 NW20G25   29.60R
SUSSEX         CLOUDY    48  33  56 VRB3      29.59R
ANDOVER          N/A     45  32  60 NW8       29.60R
TRENTON        CLEAR     48  32  53 W14G24    29.62R
MILLVILLE      CLEAR     49  34  56 NW15      29.67R
ATLANTIC CITY  CLEAR     48  33  56 W15       29.63R
WRIGHTSTOWN    CLEAR     48  33  54 NW14G22   29.61R
TOMS RIVER     PTCLDY    27 N/A N/A NW8       29.61R WCI  18
BELMAR         MOCLDY    50  30  46 NW15G23   29.59R
$$

PAZ047>061-062-071-231200-
EASTERN PENNSYLVANIA

CITY           SKY/WX    TMP DP  RH WIND       PRES   REMARKS
PHILADELPHIA   PTCLDY    49  32  52 NW14      29.67R
ALLENTOWN      CLOUDY    47  34  60 NW9       29.65R
SCRANTON       LGT RAIN  41  36  82 W15G22    29.65R
$$

CTZ002-004>006-009-010-012-RIZ004-006-007-MAZ004-011-015-231200-
SOUTHERN NEW ENGLAND
 IN CT

CITY           SKY/WX    TMP DP  RH WIND       PRES   REMARKS
BRADLEY INTL   CLOUDY    47  39  74 NW12      29.51R
HARTFORD       CLOUDY    49  40  71 NW14      29.51R
DANBURY        LGT RAIN  46  43  89 VRB6      29.55R FOG
WTRBRY/OXFORD  CLOUDY    46  37  71 N7        29.55R
BRIDGEPORT     LGT RAIN  52  44  74 NW14      29.52R
MERIDEN        CLOUDY    49  39  68 NW16G22   29.52R
NEW HAVEN      LGT RAIN  51  41  68 NW9G16    29.52R
CHESTER        CLOUDY    48  43  81 NW8       29.50R
GROTON         LGT RAIN  49  48  97 CALM      29.46R
WILLIMANTIC    CLOUDY    50  44  80 W7        29.48R

 IN RI

CITY           SKY/WX    TMP DP  RH WIND       PRES   REMARKS
PROVIDENCE     PTSUNNY   50  48  93 CALM      29.45R
BLOCK ISLAND   CLOUDY    48  45  87 SW5       29.47R
WESTERLY       CLOUDY    48  46  93 CALM      29.47R

 IN MA

CITY           SKY/WX    TMP DP  RH WIND       PRES   REMARKS
BOSTON         PTSUNNY   56  49  77 W8        29.46R
WORCESTER      MOSUNNY   47  42  83 NW17G23   29.45F
WESTFIELD      LGT RAIN  47  39  74 NW15      29.50R
PROVINCETOWN   CLOUDY    45  43  93 MISG      29.46R VSB<1/4
NANTUCKET      PTSUNNY   47  45  93 SW6       29.46S
$$

ANZ330-335-338-340-345-350-353-355-231200-
COASTAL MARINE OBSERVATIONS


STATION/POSITION TIME  SKY/WX   TEMP    WIND        PRES    VSBY  WAVE
                                AIR SEA DIR/SP/G                  HT/PER
                 (UTC)          (F)     (DEG/KT/KT) (MB)    (MI)  (FT/S)
NY HARB ENTRANCE 1100            49 47  VRB 21/ 25  1000.3
4S FIRE IS       1000               47                N/A           4/ 8
23SW MTP         1100            46 43  270/ 10/ 14  997.7          3/ 8
HUDSON CANYON    1000            49 45  280/ 17/ 19  999.2          4/ 9
EXECUTION ROCKS  1100            50 46  300/ 16/ 23   N/A
WESTERN LI SOUND 1100            50     290/ 12/ 16   N/A           1/ 3
CENTRAL LI SOUND 1000            47 43  330/  6/  8   N/A           0
EASTERN LI SOUND NOT AVBL
ROBBINS REEF     1100            50     310/ 18/ 22   N/A
$$


>>>>>>>>>>>>>>>>>>>>>>>>>>>> KEY <<<<<<<<<<<<<<<<<<<<<<<<<<<
>                                                          <
>     SKY/WX - SKY CONDITION/PRESENT WEATHER               <
>     TMP    - TEMPERATURE IN FAHRENHEIT                   <
>     DP     - DEWPOINT IN FAHRENHEIT                      <
>     RH     - RELATIVE HUMIDITY IN PERCENT                <
>     WIND   - DIRECTION AND SPEED IN MPH                  <
>     PRES   - MEAN SEA LEVEL PRESSURE IN INCHES OF HG     <
>     WCI    - WIND CHILL INDEX                            <
>     VSB    - VISIBILITY IN MILES                         <
>     HX     - HEAT INDEX                                  <
>     TC     - TEMPERATURE IN CELSIUS                      <
>     VRB    - VARIABLE WIND DIRECTION                     <
>                                                          <
>>>>>>>>>>>>>>>>>>>>>>>>>>>> KEY <<<<<<<<<<<<<<<<<<<<<<<<<<<





USA.gov is the U.S. government's official web portal to all federal, state and local government web resources and services.